This is the latest recevied weather packets stored in our database for station/object N6WDO. If no packets are shown the sender has not sent any weather packets the latest 10 day(s).
| Time | Temp. | Humidity | Pressure | Rain* | Wind** | Luminosity | Snow |
|---|---|---|---|---|---|---|---|
| 1778026687 | 15° C | 69% | 1016.6 hPa | 0 mm | - | 88 W/m² | - |
| 1778026384 | 15° C | 71% | 1016.6 hPa | 0 mm | - | 98 W/m² | - |
| 1778026081 | 15° C | 70% | 1016.7 hPa | 0 mm | - | 122 W/m² | - |
| 1778025779 | 15° C | 73% | 1016.8 hPa | 0 mm | - | 128 W/m² | - |
| 1778025475 | 15° C | 73% | 1016.7 hPa | 0 mm | - | 140 W/m² | - |
| 1778025173 | 14.44° C | 74% | 1016.7 hPa | 0 mm | - | 153 W/m² | - |
| 1778024870 | 14.44° C | 75% | 1016.6 hPa | 0 mm | - | 170 W/m² | - |
| 1778024567 | 14.44° C | 78% | 1016.8 hPa | 0 mm | - | 175 W/m² | - |
| 1778024264 | 14.44° C | 77% | 1016.6 hPa | 0 mm | - | 176 W/m² | - |
| 1778023962 | 14.44° C | 76% | 1016.8 hPa | 0 mm | - | 149 W/m² | - |
| 1778023659 | 13.89° C | 79% | 1016.6 hPa | 0 mm | - | 127 W/m² | - |
| 1778023356 | 13.89° C | 79% | 1016.8 hPa | 0 mm | - | 95 W/m² | - |
| 1778023052 | 14.44° C | 78% | 1016.7 hPa | 0 mm | - | 105 W/m² | - |
| 1778022752 | 14.44° C | 76% | 1016.5 hPa | 0 mm | - | 112 W/m² | - |
| 1778022450 | 14.44° C | 72% | 1016.6 hPa | 0 mm | - | 98 W/m² | - |
| 1778022146 | 15° C | 70% | 1016.7 hPa | 0 mm | - | 92 W/m² | - |
| 1778021842 | 14.44° C | 68% | 1016.7 hPa | 0 mm | - | 94 W/m² | - |
| 1778021540 | 15° C | 71% | 1016.6 hPa | 0 mm | - | 95 W/m² | - |
| 1778021235 | 15° C | 66% | 1016.8 hPa | 0 mm | - | 109 W/m² | - |
| 1778020933 | 15° C | 67% | 1016.6 hPa | 0 mm | - | 118 W/m² | - |
| 1778020630 | 15° C | 68% | 1016.7 hPa | 0 mm | - | 121 W/m² | - |
| 1778020326 | 14.44° C | 66% | 1016.8 hPa | 0 mm | - | 112 W/m² | - |
| 1778020022 | 15° C | 66% | 1016.7 hPa | 0 mm | - | 97 W/m² | - |
| 1778019718 | 15° C | 65% | 1016.7 hPa | 0 mm | - | 104 W/m² | - |
| 1778019416 | 15° C | 65% | 1016.5 hPa | 0 mm | - | 120 W/m² | - |
* Rain latest hour (hover to see other rain measurements)
** Current wind speed in m/s (hover to see current wind gust speed)